CW2305 Weather Reports


time (UTC)temp
C
wind
direction
speed
KPH
gust
KPH
rain 1hr
cm
rain 24hr
cm
rain mn
cm
humidity
%
barometer
mb
20260508065004 10 109 1.6 4.8 0.00 0.00 0.00 79 1016.9
20260508064512 10 144 1.6 1.6 0.00 0.00 0.00 79 1017.0
20260508064003 10 183 0.0 3.2 0.00 0.00 0.00 80 1016.9
20260508063508 10 78 1.6 6.4 0.00 0.00 0.00 81 1016.9
20260508063015 10 132 1.6 6.4 0.00 0.00 0.00 81 1016.9
20260508062507 10 115 1.6 4.8 0.00 0.00 0.00 81 1016.8
20260508062010 10 10 0.0 3.2 0.00 0.00 0.00 82 1016.8
20260508061519 9 105 0.0 3.2 0.00 0.00 0.00 83 1016.8
20260508061005 9 360 0.0 3.2 0.00 0.00 0.00 83 1016.8
20260508060503 9 360 1.6 3.2 0.00 0.00 0.00 84 1016.7
20260508060008 8 360 0.0 3.2 0.00 0.00 0.00 84 1016.7
20260508055504 8 360 1.6 3.2 0.00 0.00 0.00 85 1016.7
20260508055004 8 360 0.0 3.2 0.00 0.00 0.00 86 1016.7
20260508054508 8 360 0.0 3.2 0.00 0.00 0.00 87 1016.6
20260508054005 8 360 0.0 3.2 0.00 0.00 0.00 87 1016.5
20260508053505 7 360 0.0 3.2 0.00 0.00 0.00 88 1016.5
20260508053025 7 360 0.0 0.0 0.00 0.00 0.00 88 1016.5
20260508052510 7 360 0.0 0.0 0.00 0.00 0.00 88 1016.6
20260508052008 7 360 0.0 0.0 0.00 0.00 0.00 88 1016.5
20260508051522 7 360 0.0 0.0 0.00 0.00 0.00 88 1016.5
20260508051009 7 360 0.0 0.0 0.00 0.00 0.00 88 1016.4
20260508050512 7 360 0.0 0.0 0.00 0.00 0.00 88 1016.3
20260508050004 7 360 0.0 0.0 0.00 0.00 0.00 87 1016.3
20260508045503 7 360 0.0 0.0 0.00 0.00 0.00 88 1016.3
20260508045003 7 360 0.0 0.0 0.00 0.00 0.00 88 1016.2
20260508044506 7 360 0.0 0.0 0.00 0.00 0.00 88 1016.1
20260508044004 7 360 0.0 0.0 0.00 0.00 0.00 88 1016.1
20260508043504 7 360 0.0 0.0 0.00 0.00 0.00 87 1016.1
20260508043012 7 360 0.0 0.0 0.00 0.00 0.00 87 1016.2
20260508042506 7 360 0.0 0.0 0.00 0.00 0.00 87 1016.1
20260508042007 7 360 0.0 0.0 0.00 0.00 0.00 86 1016.1
20260508041524 7 360 0.0 0.0 0.00 0.00 0.00 86 1016.1
20260508041007 7 360 0.0 0.0 0.00 0.00 0.00 86 1016.1
20260508040512 7 360 0.0 0.0 0.00 0.00 0.00 86 1016.1
20260508040025 7 360 0.0 0.0 0.00 0.00 0.00 86 1016.1
20260508035506 8 360 0.0 0.0 0.00 0.00 0.00 85 1016.1
20260508035006 8 360 0.0 0.0 0.00 0.00 0.00 85 1016.1
20260508034505 8 360 0.0 0.0 0.00 0.00 0.00 85 1016.1
20260508034003 8 360 0.0 0.0 0.00 0.00 0.00 84 1016.1
20260508033505 8 360 0.0 0.0 0.00 0.00 0.00 84 1016.1
20260508033004 8 360 0.0 0.0 0.00 0.00 0.00 83 1016.1
20260508032504 8 360 0.0 0.0 0.00 0.00 0.00 83 1016.2
20260508032006 8 360 0.0 0.0 0.00 0.00 0.00 83 1016.2
20260508031513 8 360 0.0 0.0 0.00 0.00 0.00 83 1016.3
20260508031006 8 360 0.0 0.0 0.00 0.00 0.00 83 1016.3
20260508030508 8 360 0.0 0.0 0.00 0.00 0.00 82 1016.3
20260508030024 8 360 0.0 3.2 0.00 0.00 0.00 82 1016.2
20260508025508 8 360 0.0 3.2 0.00 0.00 0.00 82 1016.2
20260508025005 8 360 0.0 0.0 0.00 0.00 0.00 83 1016.2
20260508024522 8 360 0.0 0.0 0.00 0.00 0.00 83 1016.3
20260508024008 8 360 0.0 0.0 0.00 0.00 0.00 83 1016.3
20260508023503 8 360 0.0 0.0 0.00 0.00 0.00 83 1016.2
20260508023007 8 360 0.0 0.0 0.00 0.00 0.00 83 1016.2
20260508022503 9 360 0.0 0.0 0.00 0.00 0.00 83 1016.2
20260508022007 9 360 0.0 0.0 0.00 0.00 0.00 83 1016.1
20260508021513 9 360 0.0 0.0 0.00 0.00 0.00 83 1016.2
20260508021004 9 360 0.0 0.0 0.00 0.00 0.00 82 1016.2
20260508020504 9 360 0.0 0.0 0.00 0.00 0.00 82 1016.1
20260508020023 9 360 0.0 0.0 0.00 0.00 0.00 82 1016.1
20260508015507 9 360 0.0 0.0 0.00 0.00 0.00 82 1016.1
20260508015007 9 360 0.0 0.0 0.00 0.00 0.00 82 1016.0
20260508014521 9 360 0.0 0.0 0.00 0.00 0.00 82 1016.1
20260508014008 9 360 0.0 0.0 0.00 0.00 0.00 83 1016.1
20260508013509 8 360 0.0 0.0 0.00 0.00 0.00 83 1016.1
20260508013024 8 360 0.0 0.0 0.00 0.00 0.00 83 1016.2
20260508012510 8 360 0.0 0.0 0.00 0.00 0.00 83 1016.2
20260508012004 9 360 0.0 0.0 0.00 0.00 0.00 83 1016.2
20260508011513 9 360 0.0 0.0 0.00 0.00 0.00 83 1016.3
20260508011003 9 360 0.0 0.0 0.00 0.00 0.00 83 1016.3
20260508010505 9 360 0.0 0.0 0.00 0.00 0.00 82 1016.3
20260508010012 9 360 0.0 0.0 0.00 0.00 0.00 82 1016.3
20260508005506 9 360 0.0 0.0 0.00 0.00 0.00 82 1016.3
20260508005011 9 360 0.0 0.0 0.00 0.00 0.00 81 1016.3
20260508004520 9 360 0.0 0.0 0.00 0.00 0.00 80 1016.3
20260508004007 10 360 0.0 0.0 0.00 0.00 0.00 80 1016.3
20260508003507 10 360 0.0 0.0 0.00 0.00 0.00 79 1016.4
20260508003021 10 360 0.0 0.0 0.00 0.00 0.00 80 1016.3
20260508002507 10 360 0.0 0.0 0.00 0.00 0.00 79 1016.3
20260508002010 10 360 0.0 0.0 0.00 0.00 0.00 77 1016.3
20260508001524 10 360 0.0 0.0 0.00 0.00 0.00 76 1016.3
20260508001004 10 360 0.0 3.2 0.00 0.00 0.00 76 1016.4
20260508000505 10 360 0.0 3.2 0.00 0.00 0.00 76 1016.4
20260508000012 10 360 0.0 0.0 0.00 0.00 0.00 76 1016.4
20260507235504 10 360 0.0 0.0 0.00 0.00 0.00 76 1016.4
20260507235008 10 360 0.0 0.0 0.00 0.00 0.00 76 1016.4
20260507234516 10 360 0.0 0.0 0.00 0.00 0.00 76 1016.4
20260507234007 10 360 0.0 0.0 0.00 0.00 0.00 76 1016.4
20260507233507 10 360 0.0 0.0 0.00 0.00 0.00 77 1016.4
20260507233039 10 360 0.0 0.0 0.00 0.00 0.00 76 1016.4
20260507232511 10 360 0.0 0.0 0.00 0.00 0.00 77 1016.4
20260507232009 10 360 0.0 0.0 0.00 0.00 0.00 76 1016.4
20260507231529 10 360 0.0 0.0 0.00 0.00 0.00 76 1016.3
20260507231008 10 360 0.0 0.0 0.00 0.00 0.00 75 1016.4
20260507230507 10 360 0.0 3.2 0.00 0.00 0.00 73 1016.3
20260507230026 10 360 0.0 3.2 0.00 0.00 0.00 73 1016.3
20260507225504 10 360 0.0 3.2 0.00 0.00 0.00 73 1016.3
20260507225007 10 360 0.0 3.2 0.00 0.00 0.00 73 1016.2
20260507224514 10 360 0.0 3.2 0.00 0.00 0.00 73 1016.3
20260507224008 10 360 0.0 3.2 0.00 0.00 0.00 73 1016.3
20260507223509 10 360 0.0 0.0 0.00 0.00 0.00 72 1016.4
20260507223019 10 360 0.0 0.0 0.00 0.00 0.00 72 1016.4
20260507222513 10 360 0.0 1.6 0.00 0.00 0.00 73 1016.4
20260507222007 10 360 0.0 1.6 0.00 0.00 0.00 73 1016.4
20260507221524 10 360 0.0 0.0 0.00 0.00 0.00 73 1016.4
20260507221003 10 360 0.0 0.0 0.00 0.00 0.00 72 1016.4
20260507220503 11 360 0.0 0.0 0.00 0.00 0.00 72 1016.4
20260507220007 11 360 0.0 0.0 0.00 0.00 0.00 71 1016.4
20260507215504 11 360 0.0 1.6 0.00 0.00 0.00 71 1016.3
20260507215004 11 360 0.0 1.6 0.00 0.00 0.00 71 1016.3
20260507214513 11 360 0.0 0.0 0.00 0.00 0.00 71 1016.4
20260507214005 11 360 0.0 0.0 0.00 0.00 0.00 70 1016.3
20260507213509 11 360 0.0 0.0 0.00 0.00 0.00 70 1016.4
20260507213021 11 360 0.0 0.0 0.00 0.00 0.00 69 1016.3
20260507212507 11 360 0.0 0.0 0.00 0.00 0.00 69 1016.3
20260507212009 11 184 0.0 0.0 0.00 0.00 0.00 68 1016.3
20260507211523 11 192 0.0 0.0 0.00 0.00 0.00 68 1016.2
20260507211007 11 198 0.0 0.0 0.00 0.00 0.00 68 1016.2
20260507210513 11 198 0.0 0.0 0.00 0.00 0.00 68 1016.2
20260507210006 11 192 0.0 3.2 0.00 0.00 0.00 67 1016.1
20260507205504 11 180 0.0 3.2 0.00 0.00 0.00 67 1016.1
20260507205004 11 134 0.0 3.2 0.00 0.00 0.00 67 1016.0
20260507204507 11 175 0.0 3.2 0.00 0.00 0.00 66 1016.0
20260507204004 11 174 0.0 3.2 0.00 0.00 0.00 66 1016.0
20260507203508 12 173 0.0 3.2 0.00 0.00 0.00 65 1016.0
20260507203014 12 180 0.0 3.2 0.00 0.00 0.00 65 1016.0
20260507202506 12 180 0.0 3.2 0.00 0.00 0.00 65 1016.0
20260507202010 12 181 0.0 1.6 0.00 0.00 0.00 64 1015.9
20260507201521 12 184 0.0 0.0 0.00 0.00 0.00 64 1015.9
20260507201007 12 202 0.0 3.2 0.00 0.00 0.00 64 1015.9
20260507200511 12 203 0.0 3.2 0.00 0.00 0.00 63 1015.8
20260507200023 12 209 0.0 3.2 0.00 0.00 0.00 63 1015.8
20260507195512 12 209 0.0 3.2 0.00 0.00 0.00 62 1015.7
20260507195003 12 221 0.0 3.2 0.00 0.00 0.00 61 1015.7
20260507194509 12 216 0.0 3.2 0.00 0.00 0.00 61 1015.7
20260507194007 12 215 1.6 3.2 0.00 0.00 0.00 61 1015.7
20260507193506 12 205 0.0 3.2 0.00 0.00 0.00 61 1015.6
20260507193015 12 194 0.0 3.2 0.00 0.00 0.00 60 1015.6
20260507192505 12 202 1.6 3.2 0.00 0.00 0.00 59 1015.6
20260507192006 13 190 0.0 6.4 0.00 0.00 0.00 59 1015.6
20260507191528 13 218 0.0 6.4 0.00 0.00 0.00 58 1015.6
20260507191005 13 214 1.6 6.4 0.00 0.00 0.00 58 1015.6
20260507190506 13 198 3.2 6.4 0.00 0.00 0.00 57 1015.6
20260507190023 13 202 0.0 3.2 0.00 0.00 0.00 57 1015.5
20260507185507 13 211 1.6 4.8 0.00 0.00 0.00 56 1015.5
20260507185012 13 212 0.0 4.8 0.00 0.00 0.00 56 1015.5
20260507184532 13 178 1.6 3.2 0.00 0.00 0.00 55 1015.4
20260507184010 13 205 0.0 6.4 0.00 0.00 0.00 54 1015.5
20260507183504 13 180 1.6 6.4 0.00 0.00 0.00 53 1015.5
20260507183022 13 220 1.6 6.4 0.00 0.00 0.00 53 1015.4
20260507182507 13 177 1.6 9.7 0.00 0.00 0.00 53 1015.3
20260507182007 13 239 3.2 9.7 0.00 0.00 0.00 51 1015.3
20260507181517 14 188 3.2 9.7 0.00 0.00 0.00 51 1015.3
20260507181007 14 191 0.0 9.7 0.00 0.00 0.00 52 1015.2
20260507180508 14 188 0.0 9.7 0.00 0.00 0.00 51 1015.1
20260507180029 14 172 3.2 11.3 0.00 0.00 0.00 52 1015.1
20260507175509 14 179 3.2 11.3 0.00 0.00 0.00 51 1015.1
20260507175007 14 223 3.2 8.0 0.00 0.00 0.00 50 1015.1
20260507174524 14 209 3.2 6.4 0.00 0.00 0.00 50 1015.1
20260507174008 15 213 3.2 9.7 0.00 0.00 0.00 48 1015.1
20260507173512 15 193 3.2 9.7 0.00 0.00 0.00 50 1015.1
20260507173035 15 142 1.6 6.4 0.00 0.00 0.00 49 1015.0
20260507172504 15 230 1.6 6.4 0.00 0.00 0.00 48 1015.0
20260507172004 15 139 3.2 9.7 0.00 0.00 0.00 48 1015.1
20260507171530 15 180 3.2 9.7 0.00 0.00 0.00 48 1015.0
20260507171007 15 190 3.2 6.4 0.00 0.00 0.00 47 1015.0
20260507170509 15 181 3.2 6.4 0.00 0.00 0.00 48 1015.0
20260507170016 15 155 1.6 6.4 0.00 0.00 0.00 48 1015.0
20260507165505 15 176 1.6 6.4 0.00 0.00 0.00 47 1015.0
20260507165007 15 201 3.2 6.4 0.00 0.00 0.00 46 1015.0
20260507164529 15 222 3.2 6.4 0.00 0.00 0.00 47 1015.0
20260507164010 15 175 1.6 8.0 0.00 0.00 0.00 47 1015.1
20260507163508 15 265 0.0 8.0 0.00 0.00 0.00 46 1015.1
20260507163024 15 160 1.6 11.3 0.00 0.00 0.00 47 1015.1
20260507162512 15 121 3.2 11.3 0.00 0.00 0.00 45 1015.1
20260507162011 15 171 0.0 9.7 0.00 0.00 0.00 46 1015.0
20260507161509 15 113 1.6 9.7 0.00 0.00 0.00 46 1015.1
20260507161002 16 151 1.6 8.0 0.00 0.00 0.00 46 1015.1
20260507160506 16 141 1.6 8.0 0.00 0.00 0.00 46 1015.1
20260507160014 16 152 1.6 9.7 0.00 0.00 0.00 45 1015.1
20260507155508 16 166 1.6 11.3 0.00 0.00 0.00 44 1015.1
20260507155007 16 172 6.4 11.3 0.00 0.00 0.00 44 1015.2
20260507154522 16 142 3.2 8.0 0.00 0.00 0.00 44 1015.1
20260507154012 16 173 3.2 12.9 0.00 0.00 0.00 43 1015.1
20260507153509 16 151 1.6 12.9 0.00 0.00 0.00 43 1015.1
20260507153027 17 156 3.2 12.9 0.00 0.00 0.00 42 1015.1
20260507152513 16 222 0.0 12.9 0.00 0.00 0.00 43 1015.2
20260507152010 16 142 4.8 11.3 0.00 0.00 0.00 43 1015.2
20260507151526 16 135 3.2 11.3 0.00 0.00 0.00 46 1015.3
20260507151007 16 88 3.2 11.3 0.00 0.00 0.00 44 1015.3
20260507150507 16 194 1.6 9.7 0.00 0.00 0.00 45 1015.3
20260507150012 16 209 1.6 9.7 0.00 0.00 0.00 43 1015.3
20260507145509 16 134 3.2 8.0 0.00 0.00 0.00 45 1015.3
20260507145007 16 125 1.6 6.4 0.00 0.00 0.00 43 1015.3
20260507144520 16 98 0.0 8.0 0.00 0.00 0.00 44 1015.3
20260507144006 16 134 3.2 9.7 0.00 0.00 0.00 46 1015.4
20260507143505 16 146 3.2 9.7 0.00 0.00 0.00 44 1015.4
20260507143023 16 136 1.6 6.4 0.00 0.00 0.00 45 1015.5
20260507142510 16 122 1.6 9.7 0.00 0.00 0.00 45 1015.5
20260507142012 16 144 3.2 14.5 0.00 0.00 0.00 43 1015.7
20260507141526 16 190 4.8 14.5 0.00 0.00 0.00 42 1015.7
20260507141007 16 110 0.0 3.2 0.00 0.00 0.00 42 1015.6
20260507140507 16 139 0.0 6.4 0.00 0.00 0.00 43 1015.7
20260507140028 16 196 1.6 6.4 0.00 0.00 0.00 42 1015.7
20260507135503 16 138 1.6 11.3 0.00 0.00 0.00 47 1015.8
20260507135008 16 184 6.4 11.3 0.00 0.00 0.00 47 1015.9
20260507134519 16 122 6.4 11.3 0.00 0.00 0.00 45 1015.8
20260507134006 16 171 1.6 4.8 0.00 0.00 0.00 47 1015.9
20260507133507 15 142 1.6 4.8 0.00 0.00 0.00 47 1015.9
20260507133022 15 28 1.6 4.8 0.00 0.00 0.00 46 1016.0
20260507132511 15 50 0.0 4.8 0.00 0.00 0.00 47 1016.0
20260507132009 15 126 3.2 9.7 0.00 0.00 0.00 48 1016.1
20260507131530 15 103 3.2 9.7 0.00 0.00 0.00 45 1016.0
20260507131003 15 145 3.2 9.7 0.00 0.00 0.00 48 1016.0
20260507130504 15 261 1.6 11.3 0.00 0.00 0.00 45 1016.0
20260507130011 16 98 4.8 11.3 0.00 0.00 0.00 45 1016.0
20260507125508 16 352 1.6 11.3 0.00 0.00 0.00 43 1016.0
20260507125004 16 170 3.2 9.7 0.00 0.00 0.00 44 1015.9
20260507124519 16 154 1.6 9.7 0.00 0.00 0.00 42 1016.0
20260507124008 16 18 1.6 12.9 0.00 0.00 0.00 42 1016.0
20260507123510 16 234 1.6 12.9 0.00 0.00 0.00 43 1016.0
20260507123033 16 188 3.2 14.5 0.00 0.00 0.00 44 1016.0
20260507122509 17 127 4.8 14.5 0.00 0.00 0.00 41 1016.0
20260507122010 17 111 3.2 12.9 0.00 0.00 0.00 43 1016.1
20260507121524 17 161 3.2 12.9 0.00 0.00 0.00 44 1016.1
20260507121008 17 184 1.6 12.9 0.00 0.00 0.00 44 1016.1
20260507120511 17 102 1.6 14.5 0.00 0.00 0.00 42 1016.2
20260507120020 17 111 4.8 14.5 0.00 0.00 0.00 43 1016.2
20260507115503 17 161 3.2 11.3 0.00 0.00 0.00 42 1016.3
20260507115006 16 176 6.4 14.5 0.00 0.00 0.00 45 1016.3
20260507114512 16 53 4.8 14.5 0.00 0.00 0.00 45 1016.2
20260507114008 16 161 3.2 14.5 0.00 0.00 0.00 42 1016.3
20260507113511 16 118 4.8 14.5 0.00 0.00 0.00 42 1016.3
20260507113035 16 182 1.6 9.7 0.00 0.00 0.00 46 1016.2
20260507112515 15 192 4.8 9.7 0.00 0.00 0.00 45 1016.3
20260507112014 15 53 1.6 16.1 0.00 0.00 0.00 45 1016.3
20260507111522 15 200 3.2 16.1 0.00 0.00 0.00 45 1016.4
20260507111009 15 167 3.2 11.3 0.00 0.00 0.00 48 1016.3
20260507110510 15 44 4.8 11.3 0.00 0.00 0.00 48 1016.4
20260507110030 15 123 3.2 8.0 0.00 0.00 0.00 51 1016.4
20260507105506 15 352 3.2 11.3 0.00 0.00 0.00 48 1016.5
20260507105003 15 121 4.8 11.3 0.00 0.00 0.00 47 1016.5
20260507104515 15 156 1.6 9.7 0.00 0.00 0.00 45 1016.5
20260507104008 15 142 4.8 11.3 0.00 0.00 0.00 47 1016.6
20260507103505 15 145 4.8 11.3 0.00 0.00 0.00 49 1016.7
20260507103016 15 75 1.6 9.7 0.00 0.00 0.00 48 1016.7
20260507102507 15 77 4.8 9.7 0.00 0.00 0.00 53 1016.7
20260507102008 15 161 4.8 9.7 0.00 0.00 0.00 58 1016.7
20260507101520 15 136 4.8 11.3 0.00 0.00 0.00 54 1016.7
20260507101011 15 148 3.2 12.9 0.00 0.00 0.00 59 1016.7
20260507100507 15 153 4.8 12.9 0.00 0.00 0.00 54 1016.7
20260507100034 14 206 4.8 12.9 0.00 0.00 0.00 56 1016.8
20260507095510 13 167 4.8 11.3 0.00 0.00 0.00 60 1016.7
20260507095007 13 146 1.6 11.3 0.00 0.00 0.00 61 1016.6
20260507094524 13 185 3.2 11.3 0.00 0.00 0.00 60 1016.6
20260507094003 13 235 6.4 11.3 0.00 0.00 0.00 62 1016.6
20260507093504 13 155 4.8 9.7 0.00 0.00 0.00 63 1016.6
20260507093012 13 135 4.8 9.7 0.00 0.00 0.00 63 1016.7
20260507092506 12 167 1.6 9.7 0.00 0.00 0.00 63 1016.7
20260507092008 12 159 1.6 9.7 0.00 0.00 0.00 65 1016.7
20260507091522 12 102 3.2 11.3 0.00 0.00 0.00 67 1016.7
20260507091008 12 155 4.8 11.3 0.00 0.00 0.00 68 1016.8
20260507090508 12 115 3.2 11.3 0.00 0.00 0.00 69 1016.7
20260507090023 11 157 4.8 11.3 0.00 0.00 0.00 70 1016.8
20260507085508 11 94 3.2 12.9 0.00 0.00 0.00 69 1016.7
20260507085007 11 125 4.8 12.9 0.00 0.00 0.00 71 1016.7
20260507084528 11 129 1.6 12.9 0.00 0.00 0.00 71 1016.8
20260507084012 11 130 3.2 12.9 0.00 0.00 0.00 72 1016.8
20260507083512 11 84 4.8 9.7 0.00 0.00 0.00 72 1016.8
20260507083026 11 192 3.2 9.7 0.00 0.00 0.00 74 1016.8
20260507082508 11 80 3.2 11.3 0.00 0.00 0.00 74 1016.8
20260507082009 11 88 3.2 11.3 0.00 0.00 0.00 74 1016.7
20260507081518 10 138 4.8 11.3 0.00 0.00 0.00 74 1016.8
20260507081007 10 159 3.2 8.0 0.00 0.00 0.00 74 1016.7
20260507080507 10 155 1.6 8.0 0.00 0.00 0.00 75 1016.8
20260507080020 10 184 1.6 6.4 0.00 0.00 0.00 75 1016.7
20260507075510 10 105 3.2 6.4 0.00 0.00 0.00 75 1016.7
20260507075007 10 101 1.6 6.4 0.00 0.00 0.00 76 1016.7
20260507074531 10 360 1.6 6.4 0.00 0.00 0.00 77 1016.7
20260507074007 9 360 1.6 4.8 0.00 0.00 0.00 78 1016.7
20260507073508 9 107 1.6 8.0 0.00 0.00 0.00 79 1016.7
20260507073024 9 88 1.6 8.0 0.00 0.00 0.00 79 1016.7
20260507072508 8 158 3.2 6.4 0.00 0.00 0.00 79 1016.7
20260507072009 8 134 3.2 9.7 0.00 0.00 0.00 79 1016.6
20260507071517 8 111 1.6 9.7 0.00 0.00 0.00 80 1016.6
20260507071007 8 143 3.2 6.4 0.00 0.00 0.00 81 1016.6
20260507070508 8 126 1.6 6.4 0.00 0.00 0.00 82 1016.5
20260507070018 8 110 1.6 8.0 0.00 0.00 0.00 82 1016.5
20260507065513 8 96 3.2 11.3 0.00 0.00 0.00 82 1016.5